Location: *
(46.1833°N, 22.7667°E)
Time: 14:10:33
(UTC+00:00)

Cosmos 2218 Rocket - Pass Details

Date: 17 September 2019
Orbit: 956 x 1006 km, 82.9° (Epoch: 15 October)

Event Time Altitude Azimuth Distance (km) Brightness Sun altitude
Rises 18:15:04 0° 354° (N) 3,744 7.4 -17.3°
Reaches altitude 10° 18:17:43 10° 360° (N) 2,787 6.7 -17.7°
Maximum altitude 18:23:57 52° 76° (ENE) 1,225 4.2 -18.7°
Enters shadow 18:27:00 29° 137° (SE) 1,728 4.8 -19.2°
